This is the latest recevied weather packets stored in our database for station/object K1AWR. If no packets are shown the sender has not sent any weather packets the latest 10 day(s).
| Time | Temp. | Humidity | Pressure | Rain* | Wind** | Luminosity | Snow |
|---|---|---|---|---|---|---|---|
| 1777844105 | 13.33° C | 36% | 1009.5 hPa | 0 mm | - | 64 W/m² | - |
| 1777843801 | 12.78° C | 36% | 1009.4 hPa | 0 mm | - | 68 W/m² | - |
| 1777843499 | 12.78° C | 34% | 1009.5 hPa | 0 mm | - | 290 W/m² | - |
| 1777843196 | 12.78° C | 36% | 1009.8 hPa | 0 mm | - | 357 W/m² | - |
| 1777842893 | 12.22° C | 34% | 1009.7 hPa | 0 mm | - | 360 W/m² | - |
| 1777842588 | 12.78° C | 35% | 1009.7 hPa | 0 mm | - | 123 W/m² | - |
| 1777842286 | 12.22° C | 35% | 1009.5 hPa | 0 mm | - | 232 W/m² | - |
| 1777841986 | 12.22° C | 34% | 1009.7 hPa | 0 mm | - | 145 W/m² | - |
| 1777841683 | 12.78° C | 35% | 1009.6 hPa | 0 mm | - | 130 W/m² | - |
| 1777841379 | 13.89° C | 35% | 1009.5 hPa | 0 mm | - | 111 W/m² | - |
| 1777841077 | 13.33° C | 35% | 1009.3 hPa | 0 mm | - | 176 W/m² | - |
| 1777840773 | 15° C | 33% | 1009.6 hPa | 0 mm | - | 305 W/m² | - |
| 1777840471 | 13.89° C | 34% | 1009.4 hPa | 0 mm | - | 499 W/m² | - |
| 1777840167 | 12.22° C | 34% | 1009.4 hPa | 0 mm | - | 543 W/m² | - |
| 1777839866 | 11.67° C | 37% | 1009.4 hPa | 0 mm | - | 209 W/m² | - |
| 1777839564 | 11.67° C | 36% | 1009.4 hPa | 0 mm | - | 174 W/m² | - |
| 1777839261 | 12.22° C | 37% | 1009.5 hPa | 0 mm | - | 168 W/m² | - |
| 1777838958 | 12.78° C | 34% | 1009.5 hPa | 0 mm | - | 157 W/m² | - |
| 1777838654 | 12.78° C | 34% | 1009.4 hPa | 0 mm | - | 617 W/m² | - |
| 1777838351 | 12.78° C | 37% | 1009.2 hPa | 0 mm | - | 334 W/m² | - |
| 1777838049 | 12.78° C | 35% | 1009.3 hPa | 0 mm | - | 238 W/m² | - |
| 1777837745 | 11.67° C | 36% | 1009.2 hPa | 0 mm | - | 307 W/m² | - |
| 1777837441 | 12.22° C | 34% | 1009.3 hPa | 0 mm | - | 178 W/m² | - |
| 1777837137 | 11.67° C | 36% | 1009.3 hPa | 0 mm | - | 691 W/m² | - |
| 1777836833 | 11.67° C | 36% | 1009.5 hPa | 0 mm | - | 206 W/m² | - |
* Rain latest hour (hover to see other rain measurements)
** Current wind speed in m/s (hover to see current wind gust speed)